KM4DDJ Weather Reports


Display with metric or nautical units.
time (UTC)temp
F
wind
direction
speed
MPH
gust
MPH
rain 1hr
in
rain 24hr
in
rain mn
in
humidity
%
barometer
mb
20260906090043 70 0 0.0 1.0 0.00 0.07 0.00 98 1014.3
20260906085517 70 0 0.0 0.0 0.00 0.07 0.00 98 1014.5
20260906085020 70 0 0.0 0.0 0.00 0.07 0.00 98 1014.5
20260906084545 70 0 0.0 0.0 0.00 0.07 0.00 98 1014.4
20260906084020 69 0 0.0 0.0 0.00 0.07 0.00 98 1014.3
20260906083521 70 0 0.0 0.0 0.00 0.07 0.00 98 1014.2
20260906083041 70 0 0.0 0.0 0.00 0.07 0.00 98 1014.3
20260906082518 69 0 0.0 0.0 0.00 0.07 0.00 98 1014.3
20260906082020 69 0 0.0 0.0 0.00 0.07 0.00 98 1014.2
20260906081550 69 0 0.0 0.0 0.00 0.07 0.00 98 1014.1
20260906081017 69 0 0.0 0.0 0.00 0.07 0.00 98 1014.0
20260906080520 69 0 0.0 0.0 0.00 0.07 0.00 98 1014.1
20260906080040 69 0 0.0 0.0 0.00 0.07 0.00 97 1014.0
20260906075518 69 0 0.0 3.0 0.00 0.07 0.00 97 1013.9
20260906075017 70 0 0.0 3.0 0.00 0.07 0.00 97 1013.9
20260906074539 70 199 0.0 2.0 0.00 0.07 0.00 97 1013.9
20260906074020 70 0 0.0 1.0 0.00 0.07 0.00 97 1013.8
20260906073521 70 0 0.0 1.0 0.00 0.07 0.00 97 1013.8
20260906073051 70 160 0.0 1.0 0.00 0.07 0.00 97 1013.8
20260906072518 70 0 0.0 0.0 0.00 0.07 0.00 97 1013.8
20260906072019 70 0 0.0 0.0 0.00 0.07 0.00 97 1013.8
20260906071540 70 0 0.0 0.0 0.00 0.07 0.00 97 1013.8
20260906071019 70 0 0.0 1.0 0.00 0.07 0.00 97 1014.0
20260906070519 70 0 0.0 1.0 0.00 0.07 0.00 97 1013.9
20260906070051 70 87 0.0 1.0 0.00 0.07 0.00 97 1013.9
20260906065519 70 0 0.0 1.0 0.00 0.07 0.00 97 1013.9
20260906065020 70 0 0.0 0.0 0.00 0.07 0.00 97 1014.1
20260906064541 70 0 0.0 0.0 0.00 0.07 0.00 97 1014.2
20260906064018 70 0 0.0 1.0 0.00 0.07 0.00 96 1014.2
20260906063520 70 0 0.0 1.0 0.00 0.07 0.00 97 1014.2
20260906063042 71 0 0.0 0.0 0.00 0.07 0.00 97 1014.3
20260906062518 71 0 0.0 1.0 0.00 0.07 0.00 97 1014.6
20260906062018 71 0 0.0 1.0 0.00 0.07 0.00 97 1014.7
20260906061558 71 89 0.0 1.0 0.00 0.07 0.00 96 1014.6
20260906061020 71 0 0.0 1.0 0.00 0.07 0.00 97 1014.4
20260906060519 71 91 0.0 1.0 0.00 0.07 0.00 97 1014.6
20260906060037 71 58 0.0 1.0 0.00 0.07 0.00 96 1014.5
20260906055519 71 0 0.0 0.0 0.00 0.07 0.00 97 1014.5
20260906055019 71 0 0.0 0.0 0.00 0.07 0.00 97 1014.5
20260906054541 71 0 0.0 0.0 0.00 0.07 0.00 97 1014.5
20260906054020 71 0 0.0 0.0 0.00 0.07 0.00 97 1014.5
20260906053519 71 0 0.0 0.0 0.00 0.07 0.00 97 1014.6
20260906053045 71 0 0.0 1.0 0.00 0.07 0.00 97 1014.7
20260906052518 70 0 0.0 1.0 0.00 0.07 0.00 97 1014.5
20260906052018 70 57 0.0 1.0 0.00 0.07 0.00 97 1014.6
20260906051540 70 57 0.0 1.0 0.00 0.07 0.00 97 1014.6
20260906051018 70 57 0.0 0.0 0.00 0.07 0.00 97 1014.7
20260906050519 71 0 0.0 0.0 0.00 0.07 0.00 97 1014.7
20260906050105 70 0 0.0 0.0 0.00 0.07 0.00 97 1014.7
20260906045519 70 0 0.0 1.0 0.00 0.07 0.00 97 1014.8
20260906045021 70 0 0.0 1.0 0.00 0.07 0.00 98 1014.9
20260906044541 70 0 0.0 1.0 0.00 0.07 0.00 97 1014.7
20260906044022 70 0 0.0 0.0 0.00 0.07 0.00 97 1014.7
20260906043520 70 0 0.0 0.0 0.00 0.07 0.00 97 1014.7
20260906043048 70 0 0.0 0.0 0.00 0.07 0.00 97 1014.7
20260906042520 70 0 0.0 0.0 0.00 0.07 0.00 97 1014.7
20260906042017 70 0 0.0 0.0 0.00 0.07 0.00 97 1014.7
20260906041540 70 0 0.0 0.0 0.00 0.07 0.00 97 1014.7
20260906041020 70 0 0.0 0.0 0.00 0.07 0.00 97 1014.9
20260906040519 70 0 0.0 1.0 0.00 0.07 0.00 97 1014.9
20260906040057 70 0 0.0 1.0 0.00 0.07 0.00 97 1014.9
20260906035519 70 0 0.0 0.0 0.00 0.07 0.07 96 1015.0
20260906035019 70 0 0.0 0.0 0.00 0.07 0.07 96 1014.9
20260906034541 70 0 0.0 0.0 0.00 0.07 0.07 96 1014.8
20260906034020 70 0 0.0 0.0 0.00 0.07 0.07 96 1014.9
20260906033520 71 0 0.0 1.0 0.00 0.07 0.07 96 1014.9
20260906033038 71 0 0.0 1.0 0.00 0.07 0.07 96 1015.2
20260906032517 71 0 0.0 1.0 0.00 0.07 0.07 97 1015.1
20260906032020 71 58 0.0 1.0 0.00 0.07 0.07 97 1015.1
20260906031539 71 57 0.0 0.0 0.00 0.07 0.07 97 1015.3
20260906031019 71 0 0.0 2.0 0.00 0.07 0.07 97 1015.2
20260906030521 71 0 0.0 2.0 0.00 0.07 0.07 97 1015.2
20260906030040 71 58 1.0 2.0 0.00 0.07 0.07 97 1015.2
20260906025520 71 0 0.0 0.0 0.00 0.07 0.07 97 1015.2
20260906025021 72 0 0.0 0.0 0.00 0.07 0.07 97 1015.3
20260906024544 72 0 0.0 0.0 0.00 0.07 0.07 97 1015.3
20260906024020 72 0 0.0 0.0 0.00 0.07 0.07 97 1015.0
20260906023521 72 0 0.0 0.0 0.00 0.07 0.07 97 1015.2
20260906023056 72 0 0.0 0.0 0.00 0.07 0.07 97 1014.8
20260906022518 72 0 0.0 0.0 0.00 0.07 0.07 97 1014.9
20260906022020 72 0 0.0 0.0 0.00 0.07 0.07 96 1014.8
20260906021544 72 0 0.0 0.0 0.00 0.07 0.07 96 1014.7
20260906021019 72 0 0.0 0.0 0.00 0.07 0.07 96 1014.8
20260906020524 72 0 0.0 2.0 0.00 0.07 0.07 96 1014.9
20260906020039 72 0 0.0 2.0 0.00 0.07 0.07 96 1014.8
20260906015519 72 195 1.0 2.0 0.00 0.07 0.07 96 1014.8
20260906015018 72 0 0.0 2.0 0.00 0.07 0.07 96 1014.6
20260906014554 72 79 0.0 2.0 0.00 0.07 0.07 96 1014.5
20260906014019 72 0 0.0 5.0 0.00 0.07 0.07 96 1014.5
20260906013518 72 0 0.0 5.0 0.00 0.07 0.07 96 1014.6
20260906013041 72 0 0.0 2.0 0.00 0.07 0.07 95 1014.6
20260906012522 73 42 2.0 2.0 0.00 0.07 0.07 95 1014.6
20260906012019 73 0 0.0 4.0 0.00 0.07 0.07 95 1014.5
20260906011551 73 0 0.0 4.0 0.00 0.07 0.07 95 1014.5
20260906011018 73 0 1.0 4.0 0.00 0.07 0.07 95 1014.4
20260906010520 74 18 0.0 3.0 0.00 0.07 0.07 94 1014.2
20260906010041 74 40 1.0 3.0 0.00 0.07 0.07 95 1014.1
20260906005519 74 36 1.0 2.0 0.00 0.07 0.07 94 1014.0
20260906005021 74 199 0.0 2.0 0.00 0.07 0.07 93 1014.1
20260906004539 75 199 0.0 2.0 0.01 0.07 0.07 94 1014.0
20260906004029 75 41 0.0 2.0 0.02 0.07 0.07 93 1013.8
20260906003518 75 0 0.0 2.0 0.02 0.07 0.07 93 1013.9
20260906003040 75 0 0.0 3.0 0.02 0.07 0.07 92 1013.8
20260906002517 75 0 1.0 4.0 0.02 0.07 0.07 92 1013.9
20260906002021 75 234 0.0 4.0 0.02 0.07 0.07 93 1014.1
20260906001541 76 33 1.0 5.0 0.02 0.07 0.07 93 1013.9
20260906001018 76 239 2.0 5.0 0.02 0.07 0.07 92 1013.9
20260906000520 77 310 2.0 3.0 0.03 0.07 0.07 93 1014.1
20260906000042 77 358 1.0 2.0 0.07 0.07 0.07 92 1014.1
20260905235517 78 271 0.0 1.0 0.07 0.07 0.07 92 1014.0
20260905235024 78 0 1.0 3.0 0.07 0.07 0.07 92 1014.0
20260905234552 79 0 0.0 3.0 0.06 0.06 0.06 91 1014.3
20260905234019 80 41 1.0 3.0 0.05 0.05 0.05 89 1014.2
20260905233520 80 52 0.0 2.0 0.05 0.05 0.05 88 1014.0
20260905233044 80 0 0.0 2.0 0.05 0.05 0.05 85 1014.0
20260905232517 80 261 1.0 3.0 0.05 0.05 0.05 83 1013.9
20260905232019 81 293 2.0 4.0 0.05 0.05 0.05 85 1014.0
20260905231542 82 309 2.0 13.0 0.05 0.05 0.05 85 1013.9
20260905231017 83 219 5.0 13.0 0.05 0.05 0.05 79 1013.8
20260905230517 87 259 7.0 12.0 0.04 0.04 0.04 72 1013.8
20260905230043 90 15 2.0 3.0 0.00 0.00 0.00 68 1013.8
20260905225525 91 0 0.0 6.0 0.00 0.00 0.00 62 1013.7
20260905225017 91 200 2.0 7.0 0.00 0.00 0.00 61 1013.7
20260905224546 92 197 4.0 7.0 0.00 0.00 0.00 60 1013.6
20260905224017 92 176 2.0 5.0 0.00 0.00 0.00 60 1013.6
20260905223522 93 167 2.0 5.0 0.00 0.00 0.00 59 1013.7
20260905223042 93 196 1.0 5.0 0.00 0.00 0.00 59 1013.7
20260905222519 93 209 2.0 4.0 0.00 0.00 0.00 58 1013.7
20260905222019 94 133 1.0 3.0 0.00 0.00 0.00 58 1013.7
20260905221542 93 0 0.0 4.0 0.00 0.00 0.00 59 1013.7
20260905221020 92 0 0.0 4.0 0.00 0.00 0.00 60 1013.6
20260905220520 91 130 2.0 4.0 0.00 0.00 0.00 60 1013.7
20260905220041 91 209 1.0 4.0 0.00 0.00 0.00 61 1013.7
20260905215522 91 145 2.0 4.0 0.00 0.00 0.00 60 1013.7
20260905215025 91 0 0.0 5.0 0.00 0.00 0.00 61 1013.7
20260905214539 90 206 3.0 6.0 0.00 0.00 0.00 62 1013.9
20260905214020 90 208 3.0 6.0 0.00 0.00 0.00 62 1014.0
20260905213518 90 217 4.0 6.0 0.00 0.00 0.00 62 1014.0
20260905213040 89 160 1.0 5.0 0.00 0.00 0.00 63 1013.9
20260905212520 89 81 1.0 8.0 0.00 0.00 0.00 63 1014.1
20260905212019 88 105 3.0 8.0 0.00 0.00 0.00 63 1014.0
20260905211542 88 121 4.0 8.0 0.00 0.00 0.00 62 1014.0
20260905211021 88 160 4.0 10.0 0.00 0.00 0.00 63 1014.1
20260905210520 88 147 4.0 10.0 0.00 0.00 0.00 63 1014.3
20260905210041 88 155 6.0 10.0 0.00 0.00 0.00 63 1014.4
20260905205522 88 154 6.0 11.0 0.00 0.00 0.00 64 1014.5
20260905205023 88 132 6.0 11.0 0.00 0.00 0.00 64 1014.4
20260905204546 88 180 4.0 9.0 0.00 0.00 0.00 65 1014.5
20260905204017 88 138 4.0 8.0 0.00 0.00 0.00 65 1014.3
20260905203519 89 165 4.0 7.0 0.00 0.00 0.00 63 1014.2
20260905203042 91 144 1.0 6.0 0.00 0.00 0.00 61 1014.3
20260905202518 91 49 0.0 4.0 0.00 0.00 0.00 62 1014.3
20260905202018 90 0 1.0 5.0 0.00 0.00 0.00 61 1014.4
20260905201543 89 70 0.0 7.0 0.00 0.00 0.00 62 1014.5
20260905201023 89 62 3.0 8.0 0.00 0.00 0.00 63 1014.6
20260905200521 89 64 3.0 9.0 0.00 0.00 0.00 63 1014.7
20260905200050 89 134 5.0 9.0 0.00 0.00 0.00 64 1014.6
20260905195525 90 128 4.0 8.0 0.00 0.00 0.00 61 1014.7
20260905195022 90 147 1.0 8.0 0.00 0.00 0.00 65 1014.9
20260905194544 89 0 2.0 8.0 0.00 0.00 0.00 64 1014.9
20260905194021 89 140 4.0 10.0 0.00 0.00 0.00 63 1014.9
20260905193520 89 136 4.0 10.0 0.00 0.00 0.00 67 1014.8
20260905193042 89 151 4.0 10.0 0.00 0.00 0.00 67 1014.9
20260905192520 89 143 5.0 11.0 0.00 0.00 0.00 64 1015.2
20260905192020 89 114 7.0 13.0 0.00 0.00 0.00 65 1015.4
20260905191545 89 157 6.0 13.0 0.00 0.00 0.00 66 1015.2
20260905191020 90 131 4.0 11.0 0.00 0.00 0.00 60 1015.4
20260905190518 90 93 5.0 11.0 0.00 0.00 0.00 60 1015.6
20260905190047 90 114 4.0 9.0 0.00 0.00 0.00 59 1015.5
20260905185521 90 88 4.0 9.0 0.00 0.00 0.00 61 1015.3
20260905185018 90 75 4.0 10.0 0.00 0.00 0.00 61 1015.4
20260905184554 90 96 3.0 10.0 0.00 0.00 0.00 63 1015.5
20260905184018 89 164 5.0 10.0 0.00 0.00 0.00 62 1015.5
20260905183519 89 114 4.0 8.0 0.00 0.00 0.00 65 1015.6
20260905183046 88 70 2.0 7.0 0.00 0.00 0.00 67 1015.6
20260905182520 88 68 4.0 11.0 0.00 0.00 0.00 69 1015.7
20260905182018 87 54 2.0 11.0 0.00 0.00 0.00 70 1015.9
20260905181539 86 141 5.0 11.0 0.00 0.00 0.00 71 1015.9
20260905181018 85 124 3.0 13.0 0.00 0.00 0.00 73 1015.9
20260905180520 85 87 6.0 13.0 0.00 0.00 0.00 73 1016.2
20260905180039 84 27 5.0 12.0 0.00 0.00 0.00 74 1016.1
20260905175526 84 92 6.0 12.0 0.00 0.00 0.00 76 1016.3
20260905175022 84 72 7.0 11.0 0.00 0.00 0.00 75 1016.4
20260905174542 84 91 6.0 14.0 0.00 0.00 0.00 75 1016.6
20260905174020 84 71 6.0 14.0 0.00 0.00 0.00 75 1016.7
20260905173519 84 60 6.0 11.0 0.00 0.00 0.00 75 1016.7
20260905173042 84 68 5.0 10.0 0.00 0.00 0.00 75 1016.7
20260905172520 84 41 6.0 10.0 0.00 0.00 0.00 74 1016.7
20260905172020 84 10 6.0 10.0 0.00 0.00 0.00 74 1016.6
20260905171540 84 25 5.0 12.0 0.00 0.00 0.00 74 1016.6
20260905171019 85 16 7.0 12.0 0.00 0.00 0.00 74 1016.6
20260905170519 85 46 6.0 12.0 0.00 0.00 0.00 74 1016.7
20260905170041 85 345 8.0 14.0 0.00 0.00 0.00 74 1016.9
20260905165521 86 10 8.0 14.0 0.00 0.00 0.00 73 1016.8
20260905165021 86 26 9.0 15.0 0.00 0.00 0.00 72 1016.9
20260905164542 87 324 7.0 15.0 0.00 0.00 0.00 71 1016.8
20260905164018 87 338 6.0 12.0 0.00 0.00 0.00 71 1016.6
20260905163520 87 323 8.0 12.0 0.00 0.00 0.00 69 1016.6
20260905163042 87 333 4.0 10.0 0.00 0.00 0.00 70 1016.5
20260905162518 87 338 6.0 10.0 0.00 0.00 0.00 70 1016.7
20260905162019 88 304 6.0 9.0 0.00 0.00 0.00 67 1016.7
20260905161540 89 314 4.0 9.0 0.00 0.00 0.00 65 1016.8
20260905161020 90 286 3.0 6.0 0.00 0.00 0.00 67 1016.7
20260905160519 90 202 3.0 5.0 0.00 0.00 0.00 66 1016.7
20260905160043 89 0 2.0 5.0 0.00 0.00 0.00 67 1016.7
20260905155522 89 229 2.0 5.0 0.00 0.00 0.00 68 1016.8
20260905155022 88 0 1.0 6.0 0.00 0.00 0.00 68 1016.8
20260905154543 89 307 3.0 6.0 0.00 0.00 0.00 69 1016.7
20260905154020 89 224 2.0 6.0 0.00 0.00 0.00 70 1016.8
20260905153518 88 171 3.0 5.0 0.00 0.00 0.00 69 1016.9
20260905153053 88 255 1.0 5.0 0.00 0.00 0.00 72 1016.7
20260905152524 87 224 1.0 5.0 0.00 0.00 0.00 73 1016.8
20260905152024 87 243 1.0 6.0 0.00 0.00 0.00 73 1016.7
20260905151544 87 233 2.0 6.0 0.00 0.00 0.00 73 1016.8
20260905151019 86 240 0.0 4.0 0.00 0.00 0.00 75 1016.7
20260905150519 86 224 1.0 4.0 0.00 0.00 0.00 74 1016.8
20260905150040 85 216 0.0 5.0 0.00 0.00 0.00 76 1016.9
20260905145519 84 236 2.0 5.0 0.00 0.00 0.00 76 1016.8
20260905145018 84 287 0.0 4.0 0.00 0.00 0.00 79 1017.0
20260905144540 83 0 1.0 4.0 0.00 0.00 0.00 78 1017.1
20260905144018 84 276 1.0 3.0 0.00 0.00 0.00 78 1017.2
20260905143520 83 215 1.0 2.0 0.00 0.00 0.00 79 1017.1
20260905143041 83 0 0.0 4.0 0.00 0.00 0.00 79 1017.2
20260905142520 83 0 0.0 4.0 0.00 0.00 0.00 79 1017.1
20260905142018 83 265 1.0 3.0 0.00 0.00 0.00 79 1017.0
20260905141538 83 153 0.0 3.0 0.00 0.00 0.00 80 1016.9
20260905141022 82 219 1.0 4.0 0.00 0.00 0.00 79 1017.0
20260905140520 83 200 1.0 4.0 0.00 0.00 0.00 79 1016.9
20260905140044 83 234 2.0 3.0 0.00 0.00 0.00 78 1017.0
20260905135520 83 0 0.0 2.0 0.00 0.00 0.00 80 1017.0
20260905135019 82 162 0.0 3.0 0.00 0.00 0.00 80 1017.1
20260905134542 81 212 0.0 3.0 0.00 0.00 0.00 79 1017.1
20260905134023 81 172 0.0 3.0 0.00 0.00 0.00 83 1017.2
20260905133520 80 197 1.0 3.0 0.00 0.00 0.00 82 1017.2
20260905133041 80 0 0.0 1.0 0.00 0.00 0.00 84 1017.2
20260905132519 80 149 0.0 2.0 0.00 0.00 0.00 85 1017.2
20260905132020 79 187 0.0 2.0 0.00 0.00 0.00 85 1017.3
20260905131556 79 160 0.0 4.0 0.00 0.00 0.00 85 1017.4
20260905131019 79 221 1.0 4.0 0.00 0.00 0.00 85 1017.4
20260905130518 80 0 2.0 4.0 0.00 0.00 0.00 85 1017.4
20260905130047 80 205 1.0 4.0 0.00 0.00 0.00 84 1017.4
20260905125519 80 203 1.0 2.0 0.00 0.00 0.00 83 1017.5
20260905125020 80 0 0.0 2.0 0.00 0.00 0.00 84 1017.6
20260905124541 80 0 0.0 1.0 0.00 0.00 0.00 87 1017.6
20260905124021 79 143 0.0 1.0 0.00 0.00 0.00 89 1017.6
20260905123524 77 0 0.0 1.0 0.00 0.00 0.00 90 1017.6
20260905123042 76 0 0.0 1.0 0.00 0.00 0.00 91 1017.6
20260905122520 76 144 0.0 1.0 0.00 0.00 0.00 91 1017.6
20260905122018 76 141 0.0 1.0 0.00 0.00 0.00 91 1017.4
20260905121541 75 0 0.0 1.0 0.00 0.00 0.00 92 1017.4
20260905121018 75 0 0.0 1.0 0.00 0.00 0.00 94 1017.2
20260905120520 74 0 0.0 0.0 0.00 0.00 0.00 95 1017.3
20260905120042 74 0 0.0 0.0 0.00 0.00 0.00 95 1017.3
20260905115518 73 0 0.0 0.0 0.00 0.00 0.00 95 1017.2
20260905115022 73 0 0.0 0.0 0.00 0.00 0.00 96 1017.0
20260905114538 72 0 0.0 1.0 0.00 0.00 0.00 96 1016.8
20260905114019 72 0 0.0 1.0 0.00 0.00 0.00 96 1016.7
20260905113517 72 0 0.0 0.0 0.00 0.00 0.00 96 1016.6
20260905113038 71 0 0.0 0.0 0.00 0.00 0.00 96 1016.6
20260905112521 71 0 0.0 0.0 0.00 0.00 0.00 95 1016.5
20260905112023 71 0 0.0 0.0 0.00 0.00 0.00 94 1016.6
20260905111601 72 0 0.0 0.0 0.00 0.00 0.00 93 1016.5
20260905111020 72 0 0.0 1.0 0.00 0.00 0.00 92 1016.5
20260905110521 72 0 0.0 1.0 0.00 0.00 0.00 93 1016.5
20260905110037 73 0 0.0 0.0 0.00 0.00 0.00 93 1016.4
20260905105518 73 0 0.0 0.0 0.00 0.00 0.00 92 1016.3
20260905105019 73 0 0.0 0.0 0.00 0.00 0.00 92 1016.2
20260905104537 73 0 0.0 0.0 0.00 0.00 0.00 92 1016.1
20260905104024 73 0 0.0 0.0 0.00 0.00 0.00 92 1016.0
20260905103523 73 0 0.0 1.0 0.00 0.00 0.00 92 1016.1
20260905103042 73 0 0.0 3.0 0.00 0.00 0.00 92 1016.0
20260905102517 73 13 0.0 3.0 0.00 0.00 0.00 93 1016.1
20260905102020 73 6 1.0 3.0 0.00 0.00 0.00 93 1016.0
20260905101548 73 0 0.0 3.0 0.00 0.00 0.00 94 1016.0
20260905101021 73 0 1.0 3.0 0.00 0.00 0.00 95 1016.0
20260905100522 73 0 0.0 1.0 0.00 0.00 0.00 95 1016.0
20260905100042 73 0 0.0 1.0 0.00 0.00 0.00 94 1015.9
20260905095520 73 0 0.0 0.0 0.00 0.00 0.00 94 1015.9
20260905095018 73 0 0.0 0.0 0.00 0.00 0.00 94 1015.9
20260905094540 73 0 0.0 1.0 0.00 0.00 0.00 94 1015.7
20260905094018 73 0 0.0 1.0 0.00 0.00 0.00 94 1015.7
20260905093518 73 0 0.0 1.0 0.00 0.00 0.00 94 1015.7
20260905093044 73 0 0.0 0.0 0.00 0.00 0.00 94 1015.6
20260905092518 73 0 0.0 1.0 0.00 0.00 0.00 94 1015.5
20260905092017 73 0 0.0 1.0 0.00 0.00 0.00 93 1015.6
20260905091542 73 0 0.0 1.0 0.00 0.00 0.00 93 1015.6
20260905091020 73 0 0.0 0.0 0.00 0.00 0.00 93 1015.6
20260905090522 73 0 0.0 0.0 0.00 0.00 0.00 93 1015.7